Tiempo cada hora Barnislaw

Hoy, 1 Marzo, Lunes

Tiempo Temperatura Precipitaciones Viento Presión Humedad
00:00 +2°C° 0 mm 2 mps 768 mmHg 94%
01:00 +2°C° 0 mm 1 mps 769 mmHg 95%
02:00 +2°C° 0 mm 1 mps 768 mmHg 95%
03:00 +2°C° 0 mm 1 mps 768 mmHg 95%
04:00 +1°C° 0 mm 1 mps 768 mmHg 96%
05:00 +1°C° 0 mm 1 mps 768 mmHg 96%
06:00 +1°C° 0 mm 1 mps 768 mmHg 95%
07:00 +1°C° 0 mm 1 mps 769 mmHg 95%
08:00 +3°C° 0 mm 1 mps 769 mmHg 91%
09:00 +3°C° 0 mm 2 mps 769 mmHg 87%
10:00 +5°C° 0 mm 2 mps 769 mmHg 82%
11:00 +6°C° 0 mm 2 mps 769 mmHg 78%
12:00 +7°C° 0 mm 2 mps 769 mmHg 73%
13:00 +9°C° 0 mm 2 mps 769 mmHg 68%
14:00 +9°C° 0 mm 2 mps 769 mmHg 69%
15:00 +9°C° 0 mm 2 mps 768 mmHg 69%
16:00 +9°C° 0 mm 2 mps 768 mmHg 70%
17:00 +8°C° 0 mm 2 mps 768 mmHg 75%
18:00 +7°C° 0 mm 2 mps 768 mmHg 81%
19:00 +6°C° 0 mm 1 mps 768 mmHg 86%
20:00 +5°C° 0 mm 2 mps 768 mmHg 87%
21:00 +4°C° 0 mm 2 mps 768 mmHg 88%
22:00 +4°C° 0 mm 2 mps 768 mmHg 89%
23:00 +4°C° 0 mm 2 mps 768 mmHg 89%

Mañana, 2 Marzo, Martes

Tiempo Temperatura Precipitaciones Viento Presión Humedad
00:00 +3°C° 0 mm 2 mps 768 mmHg 90%
01:00 +3°C° 0 mm 2 mps 768 mmHg 90%
02:00 +3°C° 0 mm 2 mps 768 mmHg 89%
03:00 +2°C° 0 mm 2 mps 768 mmHg 89%
04:00 +2°C° 0 mm 2 mps 767 mmHg 89%
05:00 +2°C° 0 mm 2 mps 767 mmHg 89%
06:00 +1°C° 0 mm 2 mps 767 mmHg 89%
07:00 +1°C° 0 mm 2 mps 768 mmHg 89%
08:00 +3°C° 0 mm 2 mps 768 mmHg 83%
09:00 +5°C° 0 mm 2 mps 768 mmHg 78%
10:00 +6°C° 0 mm 2 mps 768 mmHg 73%
11:00 +8°C° 0 mm 2 mps 768 mmHg 67%
12:00 +9°C° 0 mm 2 mps 768 mmHg 61%
13:00 +11°C° 0 mm 1 mps 768 mmHg 55%
14:00 +11°C° 0 mm 1 mps 767 mmHg 56%
15:00 +11°C° 0 mm 1 mps 767 mmHg 57%
16:00 +11°C° 0 mm 1 mps 767 mmHg 57%
17:00 +10°C° 0 mm 1 mps 767 mmHg 63%
18:00 +8°C° 0 mm 1 mps 767 mmHg 68%
19:00 +6°C° 0 mm 1 mps 767 mmHg 74%
20:00 +6°C° 0 mm 1 mps 767 mmHg 77%
21:00 +5°C° 0 mm 1 mps 767 mmHg 80%
22:00 +4°C° 0 mm 1 mps 767 mmHg 82%
23:00 +4°C° 0 mm 1 mps 767 mmHg 83%

Pasado mañana, 3 Marzo, Miércoles

Tiempo Temperatura Precipitaciones Viento Presión Humedad
00:00 +4°C° 0 mm 1 mps 767 mmHg 84%
01:00 +4°C° 0 mm 1 mps 767 mmHg 85%
02:00 +3°C° 0 mm 1 mps 766 mmHg 86%
03:00 +3°C° 0 mm 1 mps 766 mmHg 86%
04:00 +3°C° 0 mm 1 mps 765 mmHg 86%
05:00 +3°C° 0 mm 1 mps 765 mmHg 87%
06:00 +3°C° 0 mm 1 mps 765 mmHg 87%
07:00 +2°C° 0 mm 1 mps 765 mmHg 87%
08:00 +4°C° 0 mm 1 mps 764 mmHg 82%
09:00 +5°C° 0 mm 2 mps 764 mmHg 76%
10:00 +7°C° 0 mm 2 mps 764 mmHg 71%
11:00 +8°C° 0 mm 2 mps 763 mmHg 67%
12:00 +10°C° 0 mm 2 mps 763 mmHg 64%
13:00 +12°C° 0 mm 2 mps 763 mmHg 60%
14:00 +12°C° 0 mm 2 mps 762 mmHg 61%
15:00 +12°C° 0 mm 2 mps 761 mmHg 61%
16:00 +11°C° 0 mm 3 mps 760 mmHg 62%
17:00 +9°C° 0 mm 3 mps 760 mmHg 67%
18:00 +8°C° 0 mm 3 mps 759 mmHg 73%
19:00 +5°C° 0 mm 3 mps 759 mmHg 79%
20:00 +5°C° 0 mm 3 mps 759 mmHg 82%
21:00 +4°C° 0 mm 3 mps 758 mmHg 85%
22:00 +4°C° 0 mm 3 mps 758 mmHg 88%
23:00 +4°C° 0 mm 3 mps 757 mmHg 90%

4 Marzo, Jueves

Tiempo Temperatura Precipitaciones Viento Presión Humedad
00:00 +4°C° 0 mm 3 mps 757 mmHg 91%
01:00 +3°C° 0 mm 3 mps 756 mmHg 92%
02:00 +4°C° 0 mm 3 mps 756 mmHg 92%
03:00 +4°C° 0 mm 3 mps 755 mmHg 93%
04:00 +4°C° 0 mm 3 mps 755 mmHg 93%
05:00 +3°C° 0 mm 3 mps 755 mmHg 94%
06:00 +2°C° 0 mm 3 mps 754 mmHg 95%
07:00 +1°C° 0 mm 3 mps 754 mmHg 96%
08:00 +2°C° 0 mm 3 mps 754 mmHg 91%
09:00 +3°C° 0 mm 3 mps 754 mmHg 87%
10:00 +3°C° 0 mm 3 mps 754 mmHg 82%
11:00 +4°C° 0 mm 3 mps 754 mmHg 77%
12:00 +5°C° 0 mm 3 mps 753 mmHg 71%
13:00 +7°C° 0 mm 3 mps 753 mmHg 66%
14:00 +7°C° 0 mm 3 mps 753 mmHg 67%
15:00 +7°C° 0 mm 3 mps 752 mmHg 68%
16:00 +7°C° 0 mm 3 mps 752 mmHg 69%
17:00 +5°C° 0 mm 3 mps 752 mmHg 73%
18:00 +4°C° 0 mm 3 mps 752 mmHg 77%
19:00 +3°C° 0 mm 3 mps 752 mmHg 81%
20:00 +2°C° 0 mm 3 mps 752 mmHg 83%
21:00 +2°C° 0 mm 3 mps 752 mmHg 86%
22:00 +1°C° 0 mm 4 mps 752 mmHg 88%
23:00 0°C° 0 mm 4 mps 752 mmHg 89%

5 Marzo, Viernes

Tiempo Temperatura Precipitaciones Viento Presión Humedad
00:00 -1°C° 0 mm 5 mps 752 mmHg 91%
01:00 -1°C° 0 mm 5 mps 752 mmHg 92%
02:00 -2°C° 0 mm 5 mps 753 mmHg 88%
03:00 -2°C° 0 mm 5 mps 753 mmHg 85%
04:00 -2°C° 0 mm 5 mps 753 mmHg 81%
05:00 -2°C° 0 mm 4 mps 754 mmHg 80%
06:00 -3°C° 0 mm 4 mps 755 mmHg 79%
07:00 -3°C° 0 mm 4 mps 755 mmHg 78%
08:00 -2°C° 0 mm 4 mps 756 mmHg 71%
09:00 -1°C° 0 mm 4 mps 756 mmHg 64%
10:00 0°C° 0 mm 5 mps 757 mmHg 58%
11:00 +1°C° 0 mm 5 mps 757 mmHg 53%
12:00 +1°C° 0 mm 5 mps 758 mmHg 48%
13:00 +2°C° 0 mm 5 mps 758 mmHg 44%
14:00 +1°C° 0 mm 5 mps 758 mmHg 44%
15:00 +1°C° 0 mm 5 mps 758 mmHg 44%
16:00 0°C° 0 mm 5 mps 759 mmHg 44%
17:00 -1°C° 0 mm 4 mps 759 mmHg 50%
18:00 -1°C° 0 mm 3 mps 760 mmHg 57%
19:00 -2°C° 0 mm 2 mps 760 mmHg 63%
20:00 -2°C° 0 mm 2 mps 761 mmHg 65%
21:00 -2°C° 0 mm 2 mps 761 mmHg 66%
22:00 -2°C° 0 mm 2 mps 762 mmHg 67%
23:00 -2°C° 0 mm 3 mps 762 mmHg 67%

6 Marzo, Sábado

Tiempo Temperatura Precipitaciones Viento Presión Humedad
00:00 -2°C° 0 mm 3 mps 763 mmHg 67%
01:00 -2°C° 0 mm 3 mps 763 mmHg 66%
02:00 -3°C° 0 mm 2 mps 763 mmHg 67%
03:00 -3°C° 0 mm 2 mps 764 mmHg 68%
04:00 -3°C° 0 mm 2 mps 764 mmHg 69%
05:00 -3°C° 0 mm 2 mps 765 mmHg 69%
06:00 -3°C° 0 mm 2 mps 765 mmHg 69%
07:00 -3°C° 0 mm 2 mps 766 mmHg 68%
08:00 -2°C° 0 mm 2 mps 766 mmHg 59%
09:00 0°C° 0 mm 3 mps 766 mmHg 50%
10:00 +1°C° 0 mm 3 mps 767 mmHg 41%
11:00 +2°C° 0 mm 3 mps 767 mmHg 40%
12:00 +3°C° 0 mm 3 mps 767 mmHg 38%
13:00 +3°C° 0 mm 3 mps 767 mmHg 36%
14:00 +3°C° 0 mm 3 mps 767 mmHg 37%
15:00 +3°C° 0 mm 3 mps 767 mmHg 38%
16:00 +3°C° 0 mm 3 mps 766 mmHg 39%
17:00 +2°C° 0 mm 2 mps 766 mmHg 44%
18:00 +1°C° 0 mm 2 mps 766 mmHg 49%
19:00 -1°C° 0 mm 2 mps 766 mmHg 55%
20:00 -2°C° 0 mm 2 mps 766 mmHg 57%
21:00 -2°C° 0 mm 2 mps 766 mmHg 58%
22:00 -2°C° 0 mm 3 mps 766 mmHg 60%
23:00 -2°C° 0 mm 3 mps 766 mmHg 62%
Mostrar más

Necesitamos Su Consentimiento

Meteoprog y nuestros Proveedores de Servicios pueden almacenar y acceder a sus datos personales como cookies, identificadores de dispositivo u otras tecnologías similares de su dispositivo y procesar dichos datos para personalizar contenido y anuncios, además de ofrecer funciones de redes sociales y analizar el tráfico.

  • Almacenar y/o acceder a información en su dispositivo

    Se puede almacenar o acceder a cookies, identificadores de dispositivo u otra información de su dispositivo para los fines anteriormente indicados.

  • Anuncios y contenido personalizados, medición de anuncios y contenido, percepciones del público, y desarrollo de productos

    Los anuncios y el contenido pueden personalizarse en base a su perfil. Se pueden añadir más datos para personalizar mejor los anuncios y contenidos. Se puede medir el rendimiento de los anuncios y contenidos. Se puede obtener la percepción sobre el público que ha visto los anuncios y contenidos. Dichos datos pueden usarse para desarrollar o mejorar la experiencia del usuario, sistemas y software.

Al hacer clic en ‘Estoy De Acuerdo’ usted permitirá el uso de las cookies, identificadores de dispositivo, balizas web u otras tecnologías similares indicadas. Su configuración puede cambiarse desde el navegador de su dispositivo.

Para ciertos fines, los intereses legítimos pueden ser considerados por encima del consentimiento. Puede leer más sobre ello en nuestra Política de Privacidad y Cookies.